SCP
0 0 0 0 0 0 0 0 0 0 0 0 0 0 0 0 0 0 0 0 0 0 0 0 0 0 0 0 0 0 0 0 0 0 0 0 0 0 0 0 0 0 0
0 0 0 0 0 0 0 0 0 0 0 0 0 0 0 0 0 0 0 0 0 0 0 0 0 0 0 0 0 0 0 0 0 0 0 0 0 0 0 0 0 0 0
0 0 0 0 0 0 0 0 0 0 0 0 0 0 0 0 0 0 0 0 0 0 0 0 0 0 0 0 0 0 0 0 0 0 0 0 0 0 0 0 0 0 0
0 0 0 0 0 0 0 0 0 0 0 0 0 0 0 0 0 0 0 0 0 0 0 0 0 0 0 0 0 0 0 0 0 0 0 0 0 0 0 0 0 0 0
0 0 0 0 0 0 0 0 0 0 0 0 0 0 0 0 0 0 0 0 0 0 0 0 0 0 0 0 0 0 0 0 0 0 0 0 0 0 0 0 0 0 0
0 0 0 0 0 0 0 0 0 0 0 0 0 0 0 0 0 0 0 0 0 0 0 0 0 0 0 0 0 0 0 0 0 0 0 0 0 0 0 0 0 0 0
0 0 0 0 0 0 0 0 0 0 0 0 0 0 0 0 0 0 0 0 0 0 0 0 0 0 0 0 0 0 0 0 0 0 0 0 0 0 0 0 0 0 0
0 0 0 0 0 0 0 0 0 0 0 0 0 0 0 0 0 0 0 0 0 0 0 0 0 0 0 0 0 0 0 0 0 0 0 0 0 0 0 0 0 0 0
0 0 0 0 0 0 0 0 0 0 0 0 0 0 0 0 0 0 0 0 0 0 0 0 0 0 0 0 0 0 0 0 0 0 0 0 0 0 0 0 0 0 0
0 0 0 0 0 0 0 0 0 0 0 0 0 0 0 0 0 0 0 0 0 0 0 0 0 0 0 0 0 0 0 0 0 0 0 0 0 0 0 0 0 0 0
0 0 0 0 0 0 0 0 0 0 0 0 0 0 0 0 0 0 0 0 0 0 0 0 0 0 0 0 0 0 0 0 0 0 0 0 0 0 0 0 0 0 0
0 0 0 0 0 0 0 0 0 0 0 0 0 0 0 0 0 0 0 0 0 0 0 0 0 0 0 0 0 0 0 0 0 0 0 0 0 0 0 0 0 0 0
0 0 0 0 0 0 0 0 0 0 0 0 0 0 0 0 0 0 0 0 0 0 0 0 0 0 0 0 0 0 0 0 0 0 0 0 0 0 0 0 0 0 0
0 0 0 0 0 0 0 0 0 0 0 0 0 0 0 0 0 0 0 0 0 0 0 0 0 0 0 0 0 0 0 0 0 0 0 0 0 0 0 0 0 0 0
0 0 0 0 0 0 0 0 0 0 0 0 0 0 0 0 0 0 0 0 0 0 0 0 0 0 0 0 0 0 0 0 0 0 0 0 0 0 0 0 0 0 0
0 0 0 0 0 0 0 0 0 0 0 0 0 0 0 0 0 0 0 0 0 0 0 0 0 0 0 0 0 0 0 0 0 0 0 0 0 0 0 0 0 0 0
0 0 0 0 0 0 0 0 0 0 0 0 0 0 0 0 0 0 0 0 0 0 0 0 0 0 0 0 0 0 0 0 0 0 0 0 0 0 0 0 0 0 0
0 0 0 0 0 0 0 0 0 0 0 0 0 0 0 0 0 0 0 0 0 0 0 0 0 0 0 0 0 0 0 0 0 0 0 0 0 0 0 0 0 0 0
0 0 0 0 0 0 0 0 0 0 0 0 0 0 0 0 0 0 0 0 0 0 0 0 0 0 0 0 0 0 0 0 0 0 0 0 0 0 0 0 0 0 0
0 0 0 0 0 0 0 0 0 0 0 0 0 0 0 0 0 0 0 0 0 0 0 0 0 0 0 0 0 0 0 0 0 0 0 0 0 0 0 0 0 0 0
0 0 0 0 0 0 0 0 0 0 0 0 0 0 0 0 0 0 0 0 0 0 0 0 0 0 0 0 0 0 0 0 0 0 0 0 0 0 0 0 0 0 0
0 0 0 0 0 0 0 0 0 0 0 0 0 0 0 0 0 0 0 0 0 0 0 0 0 0 0 0 0 0 0 0 0 0 0 0 0 0 0 0 0 0 0
0 0 0 0 0 0 0 0 0 0 0 0 0 0 0 0 0 0 0 0 0 0 0 0 0 0 0 0 0 0 0 0 0 0 0 0 0 0 0 0 0 0 0
0 0 0 0 0 0 0 0 0 0 0 0 0 0 0 0 0 0 0 0 0 0 0 0 0 0 0 0 0 0 0 0 0 0 0 0 0 0 0 0 0 0 0
0 0 0 0 0 0 0 0 0 0 0 0 0 0 0 0 0 0 0 0 0 0 0 0 0 0 0 0 0 0 0 0 0 0 0 0 0 0 0 0 0 0 0
0 0 0 0 0 0 0 0 0 0 0 0 0 0 0 0 0 0 0 0 0 0 0 0 0 0 0 0 0 0 0 0 0 0 0 0 0 0 0 0 -0 0 0
Wind_Speed_500mb
23 27 35 43 47 51 54 58 62 63 62 64 62 58 58 62 64 62 59 58 55 50 46 43 39 35 32 30 27 26 26 30 43 54 56 57 59 61 61 61 63 67 70
28 25 23 27 35 44 48 51 54 58 59 59 57 55 56 57 58 59 61 59 54 51 48 46 42 39 35 32 29 27 27 30 41 57 64 68 72 72 74 77 76 72 74
38 37 33 26 26 30 35 41 46 50 54 57 60 60 59 60 63 61 59 56 54 51 50 48 43 41 36 32 30 28 30 34 40 53 68 72 78 79 82 84 85 84 84
40 44 42 37 36 33 34 38 40 43 49 54 57 59 60 61 61 61 60 58 56 55 53 49 45 43 38 35 35 34 35 39 45 55 69 79 82 84 85 91 95 90 93
42 49 46 42 39 41 44 43 43 45 46 49 52 56 59 61 62 62 61 60 60 58 54 51 47 44 41 40 41 40 43 47 53 61 72 79 82 85 85 89 95 101 104
53 54 52 47 43 43 46 50 51 50 51 54 57 59 61 63 64 64 63 62 61 58 55 51 48 46 45 45 47 49 51 55 60 66 73 78 81 80 84 86 90 96 103
47 51 51 51 52 51 50 53 57 57 57 58 61 62 63 64 65 65 64 62 59 56 53 52 51 49 50 52 54 56 57 60 65 69 75 73 78 75 79 83 84 87 94
47 48 52 55 59 62 63 59 59 59 61 62 62 62 62 62 64 65 64 61 59 55 53 52 53 53 54 57 59 60 64 70 70 69 71 75 76 75 71 75 80 89 97
53 53 52 55 57 57 58 58 59 60 61 63 61 60 59 60 63 63 58 57 55 52 51 52 54 54 56 59 64 69 73 74 71 71 74 74 71 69 66 70 73 73 96
47 46 45 45 46 48 49 50 50 50 51 53 54 54 53 53 55 54 54 54 51 51 51 52 54 55 57 62 64 67 76 73 73 74 73 72 69 67 64 59 59 63 66
40 42 40 37 37 35 36 39 40 38 36 39 43 44 45 45 48 49 51 49 50 49 49 48 48 51 56 60 62 60 61 65 67 68 70 71 69 69 67 60 52 54 64
32 31 30 28 26 25 24 24 25 27 30 31 35 38 38 39 44 47 50 48 45 41 40 45 50 49 50 50 50 49 52 56 58 62 65 68 69 69 66 61 63 64 68
23 21 21 20 16 16 16 15 15 16 19 24 27 30 30 29 30 31 32 33 34 37 37 37 39 41 42 41 42 42 46 47 51 55 59 63 65 68 69 71 70 70 77
20 18 17 17 15 11 10 8 9 10 11 12 14 15 16 18 21 23 24 22 22 24 28 30 32 35 37 39 40 40 42 43 47 51 56 61 66 70 74 73 77 78 86
16 18 17 17 17 16 12 9 7 7 6 6 5 4 5 7 11 14 19 22 27 31 33 32 32 35 37 39 40 42 43 46 50 53 58 65 70 75 78 79 80 84 87
11 11 10 10 9 8 8 6 6 7 8 10 12 10 11 15 20 22 21 21 24 27 28 31 35 38 41 44 47 49 49 52 54 58 62 65 71 76 81 82 82 83 89
12 10 11 12 12 10 11 11 9 10 12 13 13 9 10 12 14 16 19 19 24 28 31 34 37 39 43 46 51 56 60 59 60 61 65 68 70 74 77 82 83 82 86
14 16 14 13 11 9 7 7 7 7 5 11 7 7 10 12 16 19 21 21 21 27 31 34 38 41 45 51 55 60 64 67 67 67 69 70 71 72 77 80 83 82 80
13 12 12 12 14 13 11 10 9 10 10 12 10 9 12 13 16 20 23 26 29 31 35 37 40 44 47 51 56 61 65 69 70 73 74 75 76 77 82 85 88 89 87
18 17 16 15 16 16 16 15 14 14 15 17 17 17 16 16 16 18 23 27 30 33 38 42 45 47 50 53 57 62 68 71 75 77 80 79 81 83 89 94 94 92 91
22 21 21 20 19 19 19 19 18 17 17 17 18 20 22 24 25 28 29 31 35 39 44 47 50 52 53 55 60 65 70 75 78 79 79 81 87 94 95 96 98 101 98
27 27 26 25 24 24 23 23 22 22 21 21 20 19 22 24 27 29 32 35 38 41 44 50 53 56 57 57 59 66 73 77 79 79 81 86 93 96 93 91 94 97 94
31 31 31 30 30 28 25 25 25 24 24 23 24 26 26 27 30 33 36 40 43 45 47 51 55 58 57 56 56 63 73 77 78 79 84 92 100 102 98 98 85 94 90
27 27 27 27 29 30 30 29 28 28 29 29 29 31 33 35 36 38 40 43 46 48 49 52 54 56 59 57 58 66 72 77 76 81 86 97 102 111 99 90 101 94 92
30 29 27 28 29 30 31 32 33 33 34 35 36 37 38 40 42 43 46 48 50 52 52 53 54 57 59 60 61 68 74 77 76 84 94 98 104 95 105 106 91 86 87
30 30 32 32 32 33 35 37 37 37 38 38 39 41 43 45 46 48 49 51 52 53 54 55 55 58 60 62 63 72 79 82 82 86 92 96 88 109 93 78 75 74 75
Wind_Direction_500mb
321 301 281 263 255 257 257 256 254 254 251 252 251 248 241 235 232 232 233 232 232 233 233 236 238 237 237 240 246 256 268 280 287 303 309 319 322 324 324 323 321 318 315
330 321 313 295 271 261 257 253 251 252 251 253 252 246 241 236 232 230 228 228 228 228 230 231 230 231 233 236 246 260 272 282 293 304 312 317 319 322 323 323 323 321 317
339 331 313 295 280 269 256 249 246 243 241 241 241 241 238 233 229 227 228 227 228 229 230 231 231 232 235 245 255 265 276 286 297 304 310 314 315 318 320 319 319 318 317
313 322 318 302 284 268 257 251 247 244 242 240 239 237 232 230 229 228 227 226 228 229 230 232 233 237 242 251 258 267 277 288 296 302 306 309 312 315 315 316 314 315 314
303 306 310 295 283 273 267 259 254 249 245 241 238 234 231 232 232 231 230 230 230 230 232 235 237 241 248 254 263 271 280 289 295 300 303 305 308 311 312 314 312 313 313
290 296 300 283 274 271 267 263 259 256 250 245 241 238 238 239 236 235 234 235 234 234 236 239 243 248 253 260 268 277 283 290 295 300 301 303 306 308 309 309 311 312 311
274 283 288 277 276 270 264 260 257 254 252 249 246 244 243 241 240 240 240 239 239 239 240 244 250 255 260 265 272 279 285 290 295 297 297 301 302 304 305 305 305 304 302
279 273 271 270 271 270 264 258 254 253 252 250 248 246 243 241 241 242 243 240 240 242 245 249 255 260 265 270 275 280 286 290 293 294 296 298 299 302 303 304 301 302 300
287 284 278 276 273 269 265 262 256 250 249 250 248 245 242 239 240 241 239 241 242 246 250 254 258 262 266 273 280 287 290 294 296 295 295 296 298 300 302 302 303 303 304
283 283 284 281 278 275 271 265 260 255 249 245 242 238 236 236 239 241 240 244 248 252 254 256 261 266 272 282 288 295 292 294 295 295 298 298 299 301 304 304 305 299 300
292 290 287 285 282 279 276 272 267 258 248 242 237 234 235 237 242 246 250 252 255 257 260 264 270 279 288 290 288 291 293 296 298 299 299 303 307 309 310 310 305 295 292
302 299 293 289 287 283 280 277 269 256 243 232 227 226 227 230 237 245 250 255 260 267 272 281 287 287 289 293 295 297 297 297 299 301 305 309 313 316 315 307 299 293 286
313 309 306 300 296 292 286 280 275 259 239 224 221 224 227 236 250 261 273 281 286 284 282 284 289 291 294 297 298 300 302 304 305 308 311 314 315 316 314 313 312 308 300
335 335 342 340 333 336 339 331 309 290 275 249 232 233 239 246 254 262 273 285 293 296 295 296 299 302 306 309 310 312 314 316 317 317 316 316 318 320 319 321 316 315 309
358 4 16 21 12 4 9 21 21 2 351 346 333 335 311 292 295 305 311 311 308 306 309 310 311 313 317 318 318 320 321 322 323 324 324 323 323 322 322 322 318 316 310
45 17 1 8 17 18 18 35 28 18 360 346 333 336 331 316 310 305 303 307 310 310 315 319 323 325 325 324 325 326 327 327 327 326 323 322 321 321 321 320 318 314 308
341 342 342 348 339 335 329 329 324 320 308 300 282 285 284 294 303 306 310 321 315 319 325 328 328 328 327 327 328 327 326 326 324 322 320 321 320 317 317 318 319 314 305
322 311 309 316 309 308 307 306 298 284 274 273 289 307 308 320 321 320 320 327 327 321 323 325 326 327 327 326 327 325 324 324 324 322 319 319 319 316 313 315 316 313 305
324 322 327 328 325 327 336 330 322 319 313 307 311 316 314 323 325 325 330 331 328 326 325 328 328 328 327 325 325 324 324 323 324 323 322 321 320 316 312 313 314 313 309
318 316 316 317 318 318 319 316 316 315 319 318 323 324 321 319 325 330 332 330 327 328 329 330 331 329 328 328 327 326 326 326 324 323 322 320 319 316 312 311 307 301 300
310 311 309 312 314 312 311 311 313 310 309 315 319 320 321 327 331 328 332 330 332 333 332 331 331 330 329 328 329 328 327 325 324 322 319 319 320 316 312 303 296 295 292
304 304 304 305 306 305 307 307 307 307 310 311 312 313 314 317 319 321 323 326 330 330 329 328 329 330 330 326 326 326 325 323 323 322 320 321 317 307 300 294 292 290 289
305 307 308 308 306 305 305 304 304 305 307 309 311 312 313 315 318 321 324 326 326 325 327 326 326 327 328 327 324 325 324 323 323 324 320 318 313 307 299 293 285 291 285
296 297 297 296 295 295 297 299 300 302 304 308 310 312 315 317 319 320 322 321 321 322 324 323 324 326 328 326 325 327 326 325 320 322 324 316 305 305 297 293 293 288 284
301 301 303 301 299 297 297 299 301 304 305 308 309 310 312 313 314 315 317 318 319 319 321 322 322 325 326 325 326 328 327 325 327 329 322 313 305 298 296 299 292 289 285
295 295 299 298 299 300 300 301 302 302 303 305 306 306 307 309 312 313 314 315 316 317 319 321 322 325 326 324 325 329 332 331 331 325 316 312 301 304 306 301 298 295 292
Wind_Speed_850mb
23 27 35 43 47 51 54 58 62 63 62 64 62 58 58 62 64 62 59 58 55 50 46 43 39 35 32 30 27 26 26 30 43 54 56 57 59 61 61 61 63 67 70
28 25 23 27 35 44 48 51 54 58 59 59 57 55 56 57 58 59 61 59 54 51 48 46 42 39 35 32 29 27 27 30 41 57 64 68 72 72 74 77 76 72 74
38 37 33 26 26 30 35 41 46 50 54 57 60 60 59 60 63 61 59 56 54 51 50 48 43 41 36 32 30 28 30 34 40 53 68 72 78 79 82 84 85 84 84
40 44 42 37 36 33 34 38 40 43 49 54 57 59 60 61 61 61 60 58 56 55 53 49 45 43 38 35 35 34 35 39 45 55 69 79 82 84 85 91 95 90 93
42 49 46 42 39 41 44 43 43 45 46 49 52 56 59 61 62 62 61 60 60 58 54 51 47 44 41 40 41 40 43 47 53 61 72 79 82 85 85 89 95 101 104
53 54 52 47 43 43 46 50 51 50 51 54 57 59 61 63 64 64 63 62 61 58 55 51 48 46 45 45 47 49 51 55 60 66 73 78 81 80 84 86 90 96 103
47 51 51 51 52 51 50 53 57 57 57 58 61 62 63 64 65 65 64 62 59 56 53 52 51 49 50 52 54 56 57 60 65 69 75 73 78 75 79 83 84 87 94
47 48 52 55 59 62 63 59 59 59 61 62 62 62 62 62 64 65 64 61 59 55 53 52 53 53 54 57 59 60 64 70 70 69 71 75 76 75 71 75 80 89 97
53 53 52 55 57 57 58 58 59 60 61 63 61 60 59 60 63 63 58 57 55 52 51 52 54 54 56 59 64 69 73 74 71 71 74 74 71 69 66 70 73 73 96
47 46 45 45 46 48 49 50 50 50 51 53 54 54 53 53 55 54 54 54 51 51 51 52 54 55 57 62 64 67 76 73 73 74 73 72 69 67 64 59 59 63 66
40 42 40 37 37 35 36 39 40 38 36 39 43 44 45 45 48 49 51 49 50 49 49 48 48 51 56 60 62 60 61 65 67 68 70 71 69 69 67 60 52 54 64
32 31 30 28 26 25 24 24 25 27 30 31 35 38 38 39 44 47 50 48 45 41 40 45 50 49 50 50 50 49 52 56 58 62 65 68 69 69 66 61 63 64 68
23 21 21 20 16 16 16 15 15 16 19 24 27 30 30 29 30 31 32 33 34 37 37 37 39 41 42 41 42 42 46 47 51 55 59 63 65 68 69 71 70 70 77
20 18 17 17 15 11 10 8 9 10 11 12 14 15 16 18 21 23 24 22 22 24 28 30 32 35 37 39 40 40 42 43 47 51 56 61 66 70 74 73 77 78 86
16 18 17 17 17 16 12 9 7 7 6 6 5 4 5 7 11 14 19 22 27 31 33 32 32 35 37 39 40 42 43 46 50 53 58 65 70 75 78 79 80 84 87
11 11 10 10 9 8 8 6 6 7 8 10 12 10 11 15 20 22 21 21 24 27 28 31 35 38 41 44 47 49 49 52 54 58 62 65 71 76 81 82 82 83 89
12 10 11 12 12 10 11 11 9 10 12 13 13 9 10 12 14 16 19 19 24 28 31 34 37 39 43 46 51 56 60 59 60 61 65 68 70 74 77 82 83 82 86
14 16 14 13 11 9 7 7 7 7 5 11 7 7 10 12 16 19 21 21 21 27 31 34 38 41 45 51 55 60 64 67 67 67 69 70 71 72 77 80 83 82 80
13 12 12 12 14 13 11 10 9 10 10 12 10 9 12 13 16 20 23 26 29 31 35 37 40 44 47 51 56 61 65 69 70 73 74 75 76 77 82 85 88 89 87
18 17 16 15 16 16 16 15 14 14 15 17 17 17 16 16 16 18 23 27 30 33 38 42 45 47 50 53 57 62 68 71 75 77 80 79 81 83 89 94 94 92 91
22 21 21 20 19 19 19 19 18 17 17 17 18 20 22 24 25 28 29 31 35 39 44 47 50 52 53 55 60 65 70 75 78 79 79 81 87 94 95 96 98 101 98
27 27 26 25 24 24 23 23 22 22 21 21 20 19 22 24 27 29 32 35 38 41 44 50 53 56 57 57 59 66 73 77 79 79 81 86 93 96 93 91 94 97 94
31 31 31 30 30 28 25 25 25 24 24 23 24 26 26 27 30 33 36 40 43 45 47 51 55 58 57 56 56 63 73 77 78 79 84 92 100 102 98 98 85 94 90
27 27 27 27 29 30 30 29 28 28 29 29 29 31 33 35 36 38 40 43 46 48 49 52 54 56 59 57 58 66 72 77 76 81 86 97 102 111 99 90 101 94 92
30 29 27 28 29 30 31 32 33 33 34 35 36 37 38 40 42 43 46 48 50 52 52 53 54 57 59 60 61 68 74 77 76 84 94 98 104 95 105 106 91 86 87
30 30 32 32 32 33 35 37 37 37 38 38 39 41 43 45 46 48 49 51 52 53 54 55 55 58 60 62 63 72 79 82 82 86 92 96 88 109 93 78 75 74 75
Wind_Direction_850mb
321 301 281 263 255 257 257 256 254 254 251 252 251 248 241 235 232 232 233 232 232 233 233 236 238 237 237 240 246 256 268 280 287 303 309 319 322 324 324 323 321 318 315
330 321 313 295 271 261 257 253 251 252 251 253 252 246 241 236 232 230 228 228 228 228 230 231 230 231 233 236 246 260 272 282 293 304 312 317 319 322 323 323 323 321 317
339 331 313 295 280 269 256 249 246 243 241 241 241 241 238 233 229 227 228 227 228 229 230 231 231 232 235 245 255 265 276 286 297 304 310 314 315 318 320 319 319 318 317
313 322 318 302 284 268 257 251 247 244 242 240 239 237 232 230 229 228 227 226 228 229 230 232 233 237 242 251 258 267 277 288 296 302 306 309 312 315 315 316 314 315 314
303 306 310 295 283 273 267 259 254 249 245 241 238 234 231 232 232 231 230 230 230 230 232 235 237 241 248 254 263 271 280 289 295 300 303 305 308 311 312 314 312 313 313
290 296 300 283 274 271 267 263 259 256 250 245 241 238 238 239 236 235 234 235 234 234 236 239 243 248 253 260 268 277 283 290 295 300 301 303 306 308 309 309 311 312 311
274 283 288 277 276 270 264 260 257 254 252 249 246 244 243 241 240 240 240 239 239 239 240 244 250 255 260 265 272 279 285 290 295 297 297 301 302 304 305 305 305 304 302
279 273 271 270 271 270 264 258 254 253 252 250 248 246 243 241 241 242 243 240 240 242 245 249 255 260 265 270 275 280 286 290 293 294 296 298 299 302 303 304 301 302 300
287 284 278 276 273 269 265 262 256 250 249 250 248 245 242 239 240 241 239 241 242 246 250 254 258 262 266 273 280 287 290 294 296 295 295 296 298 300 302 302 303 303 304
283 283 284 281 278 275 271 265 260 255 249 245 242 238 236 236 239 241 240 244 248 252 254 256 261 266 272 282 288 295 292 294 295 295 298 298 299 301 304 304 305 299 300
292 290 287 285 282 279 276 272 267 258 248 242 237 234 235 237 242 246 250 252 255 257 260 264 270 279 288 290 288 291 293 296 298 299 299 303 307 309 310 310 305 295 292
302 299 293 289 287 283 280 277 269 256 243 232 227 226 227 230 237 245 250 255 260 267 272 281 287 287 289 293 295 297 297 297 299 301 305 309 313 316 315 307 299 293 286
313 309 306 300 296 292 286 280 275 259 239 224 221 224 227 236 250 261 273 281 286 284 282 284 289 291 294 297 298 300 302 304 305 308 311 314 315 316 314 313 312 308 300
335 335 342 340 333 336 339 331 309 290 275 249 232 233 239 246 254 262 273 285 293 296 295 296 299 302 306 309 310 312 314 316 317 317 316 316 318 320 319 321 316 315 309
358 4 16 21 12 4 9 21 21 2 351 346 333 335 311 292 295 305 311 311 308 306 309 310 311 313 317 318 318 320 321 322 323 324 324 323 323 322 322 322 318 316 310
45 17 1 8 17 18 18 35 28 18 360 346 333 336 331 316 310 305 303 307 310 310 315 319 323 325 325 324 325 326 327 327 327 326 323 322 321 321 321 320 318 314 308
341 342 342 348 339 335 329 329 324 320 308 300 282 285 284 294 303 306 310 321 315 319 325 328 328 328 327 327 328 327 326 326 324 322 320 321 320 317 317 318 319 314 305
322 311 309 316 309 308 307 306 298 284 274 273 289 307 308 320 321 320 320 327 327 321 323 325 326 327 327 326 327 325 324 324 324 322 319 319 319 316 313 315 316 313 305
324 322 327 328 325 327 336 330 322 319 313 307 311 316 314 323 325 325 330 331 328 326 325 328 328 328 327 325 325 324 324 323 324 323 322 321 320 316 312 313 314 313 309
318 316 316 317 318 318 319 316 316 315 319 318 323 324 321 319 325 330 332 330 327 328 329 330 331 329 328 328 327 326 326 326 324 323 322 320 319 316 312 311 307 301 300
310 311 309 312 314 312 311 311 313 310 309 315 319 320 321 327 331 328 332 330 332 333 332 331 331 330 329 328 329 328 327 325 324 322 319 319 320 316 312 303 296 295 292
304 304 304 305 306 305 307 307 307 307 310 311 312 313 314 317 319 321 323 326 330 330 329 328 329 330 330 326 326 326 325 323 323 322 320 321 317 307 300 294 292 290 289
305 307 308 308 306 305 305 304 304 305 307 309 311 312 313 315 318 321 324 326 326 325 327 326 326 327 328 327 324 325 324 323 323 324 320 318 313 307 299 293 285 291 285
296 297 297 296 295 295 297 299 300 302 304 308 310 312 315 317 319 320 322 321 321 322 324 323 324 326 328 326 325 327 326 325 320 322 324 316 305 305 297 293 293 288 284
301 301 303 301 299 297 297 299 301 304 305 308 309 310 312 313 314 315 317 318 319 319 321 322 322 325 326 325 326 328 327 325 327 329 322 313 305 298 296 299 292 289 285
295 295 299 298 299 300 300 301 302 302 303 305 306 306 307 309 312 313 314 315 316 317 319 321 322 325 326 324 325 329 332 331 331 325 316 312 301 304 306 301 298 295 292